Location: *
(55.6049°S, 142.1985°W)
Time: 14:25:49
(UTC+00:00)

Cosmos 2208 Rocket - Pass Details

Date: 12 May 2021
Orbit: 753 x 806 km, 74.0° (Epoch: 17 June)

Event Time Altitude Azimuth Distance (km) Brightness Sun altitude
Exits shadow 15:33:00 - 207° (SSW) 2,707 6.5 -13.9°
Reaches altitude 10° 15:33:57 10° 205° (SSW) 2,343 6.2 -13.8°
Maximum altitude 15:39:15 69° 121° (ESE) 828 4.3 -13.1°
Drops below altitude 10° 15:44:27 10° 37° (NE) 2,299 7.3 -12.4°
Sets 15:46:49 0° 34° (NE) 3,216 8.1 -12.0°
